Delta, CO

12:04 PM MDT on May 27, 2018 (GMT -0600)
Delta

Weather History for KAJZ - July, 2013

Change the Weather History Date:

Saturday, July 6, 2013

  Actual Average (KMTJ) Record (KMTJ)
Temperature  
Mean Temperature 84 °F -  
Max Temperature 97 °F 88 °F 98 °F (2017)
Min Temperature 71 °F 55 °F 50 °F (1997)
Cooling Degree Days 19    
Growing Degree Days 34 (Base 50)    
Moisture  
Dew Point 43 °F    
Average Humidity 24    
Maximum Humidity 41    
Minimum Humidity 13    
Precipitation  
Precipitation 0.00 in - - ()
Sea Level Pressure  
Sea Level Pressure 30.01 in    
Wind  
Wind Speed 11 mph (WSW)    
Max Wind Speed 36 mph    
Max Gust Speed 46 mph    
Visibility 10 miles    
Events Thunderstorm    
Averages and records for this station are not official NWS values.
T = Trace of Precipitation, MM = Missing Value Source: NWS Daily Summary

Daily Weather History Graph

Daily Weather History Graph

Search for Another Location

Airport or City:

Astronomy

Jul. 06, 2013 Rise Set
Actual Time 5:53 AM MDT 8:40 PM MDT
Civil Twilight 5:22 AM MDT 9:11 PM MDT
Nautical Twilight 4:42 AM MDT 9:51 PM MDT
Astronomical Twilight 3:57 AM MDT 10:36 PM MDT
Moon 4:41 AM MDT (7/6) 7:24 PM MDT (7/6)
Length of Visible Light 15h 49m
Length of Day
14h 46m
Waning Crescent, 2% of the Moon is Illuminated
Jul 6
Waning Crescent
Jul 8
New
Jul 15
First Quarter
Jul 22
Full
Jul 29
Last Quarter

Hourly Weather History & Observations

Time (MDT) Temp. Dew Point Humidity Pressure Visibility Wind Dir Wind Speed Gust Speed Precip Events Conditions
12:15 AM 76.3 °F 46.8 °F 35% 29.95 in 10.0 mi NNE 9.2 mph - N/A   Mostly Cloudy
12:35 AM 81.9 °F 40.5 °F 23% 29.96 in 10.0 mi NW 20.7 mph 29.9 mph N/A   Overcast
12:55 AM 84.2 °F 41.0 °F 22% 29.97 in 7.0 mi WNW 35.7 mph 46.0 mph N/A   Mostly Cloudy
1:15 AM 82.9 °F 42.4 °F 24% 29.99 in 10.0 mi West 23.0 mph 38.0 mph N/A   Scattered Clouds
1:35 AM 81.9 °F 41.9 °F 24% 30.00 in 10.0 mi West 21.9 mph 28.8 mph N/A   Scattered Clouds
1:55 AM 81.3 °F 41.4 °F 24% 30.00 in 10.0 mi West 20.7 mph 29.9 mph N/A   Clear
2:15 AM 80.6 °F 41.4 °F 25% 30.02 in 10.0 mi West 17.3 mph 23.0 mph N/A   Scattered Clouds
2:35 AM 80.6 °F 41.2 °F 25% 30.02 in 10.0 mi West 10.4 mph 20.7 mph N/A   Overcast
2:55 AM 79.9 °F 41.4 °F 25% 30.02 in 10.0 mi West 15.0 mph 18.4 mph N/A   Scattered Clouds
3:15 AM 80.1 °F 41.0 °F 25% 30.02 in 10.0 mi West 3.5 mph - N/A   Scattered Clouds
3:35 AM 80.6 °F 41.0 °F 24% 30.02 in 10.0 mi Calm Calm - N/A   Scattered Clouds
3:55 AM 78.3 °F 41.4 °F 27% 30.02 in 10.0 mi ESE 8.1 mph - N/A   Scattered Clouds
4:15 AM 76.5 °F 43.7 °F 31% 30.03 in 10.0 mi Calm Calm - N/A   Scattered Clouds
4:35 AM 75.4 °F 43.5 °F 32% 30.03 in 10.0 mi ENE 4.6 mph - N/A   Scattered Clouds
4:55 AM 75.2 °F 43.9 °F 33% 30.03 in 10.0 mi NE 6.9 mph - N/A   Mostly Cloudy
5:15 AM 74.7 °F 44.2 °F 34% 30.04 in 10.0 mi ENE 5.8 mph - N/A   Overcast
5:35 AM 72.9 °F 47.7 °F 41% 30.04 in 10.0 mi NNE 5.8 mph - N/A   Scattered Clouds
5:55 AM 73.4 °F 44.4 °F 35% 30.04 in 10.0 mi NE 5.8 mph - N/A   Scattered Clouds
6:15 AM 71.6 °F 46.6 °F 41% 30.05 in 10.0 mi NE 5.8 mph - N/A   Clear
6:35 AM 72.5 °F 45.7 °F 38% 30.05 in 10.0 mi NE 3.5 mph - N/A   Clear
6:55 AM 75.0 °F 44.4 °F 34% 30.06 in 10.0 mi ESE 4.6 mph - N/A   Clear
7:15 AM 74.1 °F 45.1 °F 35% 30.06 in 10.0 mi Calm Calm - N/A   Clear
7:35 AM 74.8 °F 46.8 °F 37% 30.06 in 10.0 mi East 8.1 mph - N/A   Clear
7:55 AM 76.3 °F 48.2 °F 37% 30.06 in 10.0 mi ENE 3.5 mph - N/A   Clear
8:15 AM 77.9 °F 47.3 °F 34% 30.07 in 10.0 mi East 4.6 mph - N/A   Clear
8:35 AM 79.2 °F 47.3 °F 33% 30.07 in 10.0 mi East 5.8 mph - N/A   Clear
8:55 AM 79.7 °F 48.6 °F 33% 30.07 in 10.0 mi ESE 4.6 mph - N/A   Clear
9:15 AM 81.1 °F 47.8 °F 31% 30.07 in 10.0 mi East 6.9 mph - N/A   Clear
9:35 AM 82.6 °F 45.5 °F 27% 30.07 in 10.0 mi SSE 3.5 mph - N/A   Clear
9:55 AM 83.7 °F 44.8 °F 26% 30.07 in 10.0 mi SSE 6.9 mph - N/A   Clear
10:15 AM 84.2 °F 44.8 °F 25% 30.06 in 10.0 mi SSE 4.6 mph - N/A   Clear
10:35 AM 85.1 °F 44.6 °F 24% 30.07 in 10.0 mi Calm Calm - N/A   Clear
10:55 AM 85.8 °F 44.8 °F 24% 30.06 in 10.0 mi ENE 3.5 mph - N/A   Clear
11:15 AM 87.3 °F 44.1 °F 22% 30.05 in 10.0 mi Calm Calm - N/A   Clear
11:35 AM 88.3 °F 44.8 °F 22% 30.05 in 10.0 mi South 5.8 mph - N/A   Clear
11:55 AM 89.4 °F 45.0 °F 21% 30.05 in 10.0 mi South 8.1 mph - N/A   Clear
12:15 PM 90.7 °F 43.7 °F 20% 30.04 in 10.0 mi SW 8.1 mph - N/A   Clear
12:35 PM 91.8 °F 43.7 °F 19% 30.04 in 10.0 mi SW 9.2 mph 18.4 mph N/A   Clear
12:55 PM 91.4 °F 43.5 °F 19% 30.03 in 10.0 mi West 6.9 mph - N/A   Scattered Clouds
1:15 PM 93.0 °F 41.4 °F 17% 30.03 in 10.0 mi West 5.8 mph 16.1 mph N/A   Scattered Clouds
1:35 PM 93.6 °F 40.8 °F 16% 30.02 in 10.0 mi West 12.7 mph 17.3 mph N/A   Clear
1:55 PM 93.7 °F 40.5 °F 16% 30.01 in 10.0 mi West 3.5 mph - N/A   Clear
2:15 PM 94.1 °F 40.3 °F 15% 30.00 in 10.0 mi NW 6.9 mph - N/A   Clear
2:35 PM 94.5 °F 39.2 °F 15% 29.99 in 10.0 mi West 3.5 mph - N/A   Clear
2:55 PM 93.6 °F 39.9 °F 15% 29.98 in 10.0 mi SW 6.9 mph - N/A   Clear
3:15 PM 95.5 °F 38.5 °F 14% 29.97 in 10.0 mi SW 13.8 mph 18.4 mph N/A   Clear
3:35 PM 97.3 °F 38.5 °F 13% 29.96 in 10.0 mi WSW 12.7 mph 17.3 mph N/A   Clear
3:55 PM 94.5 °F 37.4 °F 14% 29.95 in 10.0 mi West 9.2 mph 20.7 mph N/A   Clear
4:15 PM 95.7 °F 37.9 °F 13% 29.95 in 10.0 mi West 11.5 mph - N/A   Clear
4:35 PM 93.7 °F 37.6 °F 14% 29.94 in 10.0 mi West 9.2 mph - N/A   Clear
4:55 PM 94.1 °F 42.1 °F 16% 29.93 in 10.0 mi SW 3.5 mph - N/A   Clear
5:15 PM 94.6 °F 41.4 °F 16% 29.93 in 10.0 mi South 10.4 mph - N/A   Scattered Clouds
5:35 PM 93.7 °F 41.2 °F 16% 29.93 in 10.0 mi South 10.4 mph - N/A   Scattered Clouds
5:55 PM 93.2 °F 41.2 °F 16% 29.93 in 10.0 mi South 6.9 mph - N/A   Clear
6:15 PM 91.8 °F 43.2 °F 18% 29.93 in 10.0 mi South 5.8 mph - N/A   Clear
6:35 PM 92.7 °F 40.8 °F 16% 29.93 in 10.0 mi SSW 4.6 mph - N/A   Clear
6:55 PM 92.3 °F 40.8 °F 17% 29.92 in 10.0 mi SSW 4.6 mph - N/A   Clear
7:15 PM 92.5 °F 44.2 °F 19% 29.92 in 10.0 mi South 9.2 mph - N/A   Clear
7:35 PM 90.1 °F 48.4 °F 24% 29.93 in 10.0 mi South 4.6 mph - N/A   Clear
7:55 PM 88.9 °F 48.4 °F 25% 29.93 in 10.0 mi South 4.6 mph - N/A   Clear
8:15 PM 87.6 °F 48.7 °F 26% 29.94 in 10.0 mi SSW 5.8 mph - N/A   Clear
8:35 PM 88.2 °F 42.1 °F 20% 29.96 in 10.0 mi WNW 17.3 mph 24.2 mph N/A   Mostly Cloudy
8:55 PM 86.9 °F 42.3 °F 21% 29.98 in 10.0 mi WNW 26.5 mph 34.5 mph N/A   Scattered Clouds
9:15 PM 86.2 °F 41.5 °F 21% 29.98 in 10.0 mi West 15.0 mph 27.6 mph N/A   Clear
9:35 PM 85.3 °F 42.4 °F 22% 29.99 in 10.0 mi West 17.3 mph 21.9 mph N/A Thunderstorm Clear
9:55 PM 84.7 °F 42.8 °F 23% 30.00 in 10.0 mi WSW 17.3 mph 25.3 mph N/A   Clear
10:15 PM 83.8 °F 43.0 °F 24% 30.02 in 10.0 mi West 17.3 mph 28.8 mph N/A   Scattered Clouds
10:35 PM 85.1 °F 41.5 °F 22% 30.02 in 10.0 mi West 20.7 mph 28.8 mph N/A   Scattered Clouds
10:55 PM 84.7 °F 40.8 °F 21% 30.04 in 10.0 mi West 20.7 mph 26.5 mph N/A   Scattered Clouds
11:15 PM 84.0 °F 43.0 °F 24% 30.04 in 10.0 mi West 12.7 mph 26.5 mph N/A   Mostly Cloudy
11:35 PM 84.6 °F 40.1 °F 21% 30.04 in 10.0 mi WNW 12.7 mph 28.8 mph N/A   Scattered Clouds
11:55 PM 84.4 °F 39.9 °F 21% 30.06 in 10.0 mi WNW 12.7 mph - N/A   Mostly Cloudy